Hourly Data Report for July 14, 2021

TORONTO CITY
ONTARIO
Current Station Operator: ECCC - MSC

43°40'00.000" N
79°24'00.000" W
112.50 m
6158355
71508
XTO

Download Data

Hourly Data (July 2021)
Hourly Data Report for July 14, 2021
TIME
LST
Temp Definition
°C
Dew Point Definition
°C
Rel Hum Definition
%
Precip. Amount Definition
mm

Wind Dir Definition
10's deg

Wind Spd Definition
km/h
Visibility Definition
km
Stn Press Definition
kPa
Hmdx Definition


Wind Chill Definition


Weather Definition


00:00 20.9 19.5 92 0.6       100.24 28   LegendNANA
01:00 21.2 20.0 93 0.0       100.27 29   LegendNANA
02:00 21.6 19.4 87 0.0       100.28 29   LegendNANA
03:00 21.3 19.3 88 0.0       100.30 28   LegendNANA
04:00 21.3 19.2 88 0.0       100.31 28   LegendNANA
05:00 20.9 18.5 86 0.0       100.39 27   LegendNANA
06:00 21.1 18.3 84 0.0       100.45 27   LegendNANA
07:00 21.7 18.1 80 0.0       100.48 28   LegendNANA
08:00 23.4 18.6 74 0.0       100.51 30   LegendNANA
09:00 23.5 18.4 73 0.0       100.53 30   LegendNANA
10:00 25.4 19.8 71 0.0       100.55 33   LegendNANA
11:00 25.8 19.9 70 0.0       100.58 33   LegendNANA
12:00 25.8 19.8 70 0.0       100.60 33   LegendNANA
13:00 26.6 19.9 67 0.0       100.58 34   LegendNANA
14:00 27.2 19.9 65 0.0       100.57 35   LegendNANA
15:00 28.0 20.1 62 0.0       100.50 36   LegendNANA
16:00 27.1 20.3 66 0.0       100.48 35   LegendNANA
17:00 26.4 20.4 70 0.0       100.43 34   LegendNANA
18:00 25.6 20.1 72 0.0       100.47 33   LegendNANA
19:00 25.0 20.3 75 0.0       100.49 33   LegendNANA
20:00 24.2 20.5 80 0.0       100.49 32   LegendNANA
21:00 23.2 20.1 83 0.0       100.53 31   LegendNANA
22:00 22.6 19.9 85 0.0       100.49 30   LegendNANA
23:00 22.2 19.1 83 0.0       100.47 29   LegendNANA

Notes on Data Quality.

Legend

  • E = Estimated
  • M = Missing
  • NA = Not Available*
  • [empty] = Indicates an unobserved value
Date modified: